EW4502 Weather Reports


time (UTC)temp
C
wind
direction
speed
KPH
gust
KPH
rain 1hr
cm
rain 24hr
cm
rain mn
cm
humidity
%
barometer
mb
20260504081539 7 360 0.0 0.0 0.00 0.00 0.00 71 1010.3
20260504050023 6 360 0.0 0.0 0.00 0.00 0.00 59 1010.5
20260504044523 6 360 0.0 0.0 0.00 0.00 0.00 60 1010.5
20260504043018 6 360 0.0 0.0 0.00 0.00 0.00 59 1010.6
20260504041515 5 360 0.0 0.0 0.00 0.00 0.00 58 1010.6
20260504040015 5 360 0.0 0.0 0.00 0.00 0.00 59 1010.5
20260504034518 4 360 0.0 0.0 0.00 0.00 0.00 60 1010.3
20260504033010 5 360 0.0 0.0 0.00 0.00 0.00 61 1010.3
20260504031510 5 360 0.0 0.0 0.00 0.00 0.00 62 1010.3
20260504030009 5 360 0.0 0.0 0.00 0.00 0.00 60 1010.4
20260504024511 5 360 0.0 0.0 0.00 0.00 0.00 58 1010.3
20260504023009 5 360 0.0 0.0 0.00 0.00 0.00 58 1010.3
20260504021508 5 360 0.0 0.0 0.00 0.00 0.00 58 1010.2
20260504020008 5 360 0.0 0.0 0.00 0.00 0.00 57 1010.1
20260504014508 5 360 0.0 0.0 0.00 0.00 0.00 57 1010.1
20260504013009 5 360 0.0 0.0 0.00 0.00 0.00 56 1009.9
20260504011507 5 360 0.0 0.0 0.00 0.00 0.00 56 1009.7
20260504010006 6 360 0.0 0.0 0.00 0.00 0.00 55 1009.5
20260504004508 6 360 0.0 0.0 0.00 0.00 0.00 56 1009.3
20260504003005 6 360 0.0 0.0 0.00 0.00 0.00 54 1009.1
20260504001504 7 360 0.0 0.0 0.00 0.00 0.00 51 1009.0
20260504000004 7 360 0.0 0.0 0.00 0.00 0.00 49 1008.8
20260503234504 8 360 0.0 0.0 0.00 0.00 0.00 45 1008.6
20260503233004 8 360 0.0 3.2 0.00 0.00 0.00 45 1008.5
20260503231503 9 360 0.0 12.9 0.00 0.00 0.00 43 1008.4
20260503230003 9 360 0.0 0.0 0.00 0.00 0.00 47 1008.4
20260503224502 9 360 0.0 0.0 0.00 0.00 0.00 42 1008.4
20260503223002 10 209 0.0 6.4 0.00 0.00 0.00 42 1008.5
20260503221501 11 234 0.0 20.9 0.00 0.00 0.00 40 1008.4
20260503220059 10 360 0.0 14.5 0.00 0.00 0.00 41 1008.3
20260503214557 10 279 0.0 19.3 0.00 0.00 0.00 42 1008.2
20260503213057 10 360 1.6 19.3 0.00 0.00 0.00 41 1008.0
20260503211555 10 360 0.0 20.9 0.00 0.00 0.00 42 1007.9
20260503210054 9 71 0.0 1.6 0.00 0.00 0.00 46 1007.9
20260503204555 9 360 0.0 19.3 0.00 0.00 0.00 43 1007.9
20260503203056 8 69 0.0 11.3 0.00 0.00 0.00 44 1008.0
20260503201552 9 360 0.0 20.9 0.00 0.00 0.00 44 1007.9
20260503200052 8 39 0.0 9.7 0.00 0.00 0.00 46 1007.9
20260503194554 8 345 0.0 14.5 0.00 0.00 0.00 46 1008.0
20260503193051 8 349 0.0 3.2 0.00 0.00 0.00 44 1008.1
20260503191550 9 86 0.0 19.3 0.00 0.00 0.00 45 1007.9
20260503190053 9 360 1.6 24.1 0.00 0.00 0.00 43 1007.9
20260503184605 9 360 0.0 9.7 0.00 0.00 0.00 49 1007.9
20260503183052 9 191 1.6 24.1 0.00 0.00 0.00 45 1008.0
20260503181554 10 360 3.2 24.1 0.00 0.00 0.00 44 1007.8
20260503180048 9 360 6.4 25.7 0.00 0.00 0.00 45 1007.8
20260503174546 8 360 0.0 14.5 0.00 0.00 0.00 48 1007.8
20260503173046 8 16 3.2 22.5 0.00 0.00 0.00 49 1007.8
20260503171607 8 311 0.0 25.7 0.00 0.00 0.00 49 1007.8